Terminal Aerodrome Forecast
Issued by NWS

Home | Current Version | Previous Version | Text Only | Print | Product List | Glossary On
Versions: 1 2 3 4 5 6 7 8 9 10 11 12 13 14 15 16 17 18 19 20 21 22 23 24
000
FTUS44 KLIX 021150
TAFHDC
TAF
KHDC 021150Z 0212/0312 00000KT P6SM BKN120
     FM021230 VRB03KT P6SM SCT250
     FM021800 21005KT P6SM SCT040
     FM030800 VRB03KT 5SM BR SKC=

USA.gov is the U.S. government's official web portal to all federal, state and local government web resources and services.